Tracking 22287 objects as of 27-Jan-2021
HD Live streaming from Space Station
objects crossing your sky now

AVUM DEB(ADAPTOR)


AVUM DEB(ADAPTOR) is no longer on orbit


NORAD ID: 42902
Int'l Code: 2017-044C
Perigee: N/A
Apogee: N/A
Inclination: N/A
Period: N/A
Semi major axis: N/A
RCS: N/A
Launch date: August 2, 2017
Source: European Space Agency (ESA)
Launch site: FRENCH GUIANA (FRGUI)
Decay date: 2020-09-11

Note: This is SATELLITE DEBRIS
aabbcc
Your satellite tracking list
Your tracking list is empty




NASA's NSSDC Master Catalog

Two Line Element Set (TLE):
1 42902U 17044C   20255.07746409  .44945578  23392-5  42195-3 0  9998
2 42902  97.1246 349.7166 0013387 313.6550  46.6251 16.50873009176770
Source of the keplerian elements: AFSPC